This is the latest recevied weather packets stored in our database for station/object KG5MMT-15. If no packets are shown the sender has not sent any weather packets the latest 10 day(s).
| Time | Temp. | Humidity | Pressure | Rain* | Wind** | Luminosity | Snow |
|---|---|---|---|---|---|---|---|
| 1777492651 | 18.33° C | 13% | 0 hPa | 0 mm | - | - | - |
| 1777492351 | 17.78° C | 14% | 0 hPa | 0 mm | - | - | - |
| 1777492051 | 18.33° C | 12% | 0 hPa | 0 mm | - | - | - |
| 1777491451 | 18.89° C | 12% | 0 hPa | 0 mm | - | - | - |
| 1777491151 | 18.89° C | 12% | 0 hPa | 0 mm | - | - | - |
| 1777490851 | 18.33° C | 12% | 0 hPa | 0 mm | - | - | - |
| 1777490551 | 18.33° C | 12% | 0 hPa | 0 mm | - | - | - |
| 1777490251 | 18.33° C | 11% | 0 hPa | 0 mm | - | - | - |
| 1777489951 | 18.33° C | 11% | 0 hPa | 0 mm | - | - | - |
| 1777489651 | 18.33° C | 13% | 0 hPa | 0 mm | - | - | - |
| 1777489051 | 17.78° C | 14% | 0 hPa | 0 mm | - | - | - |
| 1777487851 | 16.67° C | 17% | 0 hPa | 0 mm | - | - | - |
| 1777487551 | 16.67° C | 15% | 0 hPa | 0 mm | - | - | - |
| 1777487251 | 16.11° C | 16% | 0 hPa | 0 mm | - | - | - |
| 1777486951 | 16.67° C | 17% | 0 hPa | 0 mm | - | - | - |
| 1777486651 | 16.67° C | 21% | 0 hPa | 0 mm | - | - | - |
| 1777486351 | 16.67° C | 22% | 0 hPa | 0 mm | - | - | - |
| 1777486051 | 16.11° C | 22% | 0 hPa | 0 mm | - | - | - |
| 1777485751 | 16.11° C | 23% | 0 hPa | 0 mm | - | - | - |
| 1777485451 | 15.56° C | 25% | 0 hPa | 0 mm | - | - | - |
| 1777484851 | 15° C | 29% | 0 hPa | 0 mm | - | - | - |
| 1777484251 | 14.44° C | 30% | 0 hPa | 0 mm | - | - | - |
| 1777483651 | 15.56° C | 27% | 0 hPa | 0 mm | - | - | - |
| 1777482751 | 14.44° C | 26% | 0 hPa | 0 mm | - | - | - |
| 1777482451 | 13.33° C | 44% | 0 hPa | 0 mm | - | - | - |
* Rain latest hour (hover to see other rain measurements)
** Current wind speed in m/s (hover to see current wind gust speed)